QXE2285 KSFO-KPSP

Flight info

Callsign QXE2285
Flight time 1h 10m
Altitude 35000
Route WESLA5 KAYEX LOSHN CLASN SIZLR4
Aircraft E75L/M-SDE3GILORVW/S

Departure

Time 2026-05-07 03:26
Airport San Francisco International Airport (KSFO)

Arrival

Time 2026-05-07 04:37
Airport Palm Springs International Airport (KPSP)
Time Latitude Longitude Altitude Speed Heading
2026-05-07 02:36 37.61164 -122.38454 20 ft 0 kts 298°
2026-05-07 02:51 37.61163 -122.38452 20 ft 2 kts 298°
2026-05-07 02:51 37.61153 -122.38428 20 ft 3 kts 298°
2026-05-07 02:52 37.61136 -122.38408 20 ft 4 kts 353°
2026-05-07 02:52 37.61112 -122.38416 21 ft 3 kts 28°
2026-05-07 02:52 37.61096 -122.38427 21 ft 0 kts 28°
2026-05-07 02:54 37.61112 -122.38416 21 ft 3 kts 28°
2026-05-07 02:54 37.61133 -122.38407 20 ft 4 kts
2026-05-07 02:54 37.61147 -122.38416 20 ft 4 kts 314°
2026-05-07 02:55 37.61163 -122.38452 20 ft 2 kts 298°
2026-05-07 02:55 37.61164 -122.38454 20 ft 0 kts 298°
2026-05-07 03:07 37.61165 -122.38456 20 ft 24 kts 297°
2026-05-07 03:07 37.61157 -122.38434 20 ft 0 kts 296°
2026-05-07 03:15 37.61157 -122.38433 20 ft 2 kts 296°
2026-05-07 03:15 37.61153 -122.38428 20 ft 3 kts 298°
2026-05-07 03:16 37.61136 -122.38408 20 ft 4 kts 353°
2026-05-07 03:16 37.61112 -122.38416 20 ft 3 kts 28°
2026-05-07 03:16 37.61096 -122.38427 20 ft 0 kts 28°
2026-05-07 03:18 37.61097 -122.38426 20 ft 1 kts 32°
2026-05-07 03:19 37.61103 -122.38417 20 ft 3 kts 54°
2026-05-07 03:19 37.61126 -122.38372 20 ft 8 kts 53°
2026-05-07 03:19 37.61151 -122.38325 22 ft 4 kts 66°
2026-05-07 03:19 37.61160 -122.38304 20 ft 3 kts 48°
2026-05-07 03:20 37.61193 -122.38272 20 ft 9 kts 30°
2026-05-07 03:20 37.61263 -122.38230 20 ft 13 kts 27°
2026-05-07 03:20 37.61369 -122.38162 22 ft 20 kts 26°
2026-05-07 03:20 37.61499 -122.38073 20 ft 23 kts 29°
2026-05-07 03:21 37.61623 -122.37992 20 ft 19 kts 28°
2026-05-07 03:21 37.61724 -122.37911 20 ft 17 kts 33°
2026-05-07 03:21 37.61796 -122.37817 20 ft 13 kts 60°
2026-05-07 03:21 37.61783 -122.37720 20 ft 12 kts 111°
2026-05-07 03:22 37.61749 -122.37610 20 ft 15 kts 111°
2026-05-07 03:22 37.61708 -122.37478 20 ft 17 kts 112°
2026-05-07 03:22 37.61657 -122.37348 20 ft 15 kts 120°
2026-05-07 03:22 37.61601 -122.37225 20 ft 17 kts 120°
2026-05-07 03:23 37.61537 -122.37084 20 ft 19 kts 116°
2026-05-07 03:23 37.61469 -122.36929 20 ft 20 kts 128°
2026-05-07 03:23 37.61374 -122.36792 20 ft 21 kts 125°
2026-05-07 03:23 37.61302 -122.36621 20 ft 23 kts 116°
2026-05-07 03:24 37.61226 -122.36452 21 ft 23 kts 118°
2026-05-07 03:24 37.61150 -122.36269 20 ft 23 kts 122°
2026-05-07 03:24 37.61075 -122.36092 22 ft 24 kts 118°
2026-05-07 03:24 37.61067 -122.35936 21 ft 13 kts 53°
2026-05-07 03:25 37.61139 -122.35872 21 ft 12 kts 29°
2026-05-07 03:25 37.61180 -122.35856 20 ft 1 kts 308°
2026-05-07 03:25 37.61186 -122.35874 20 ft 3 kts 294°
2026-05-07 03:25 37.61198 -122.35907 20 ft 7 kts 296°
2026-05-07 03:26 37.61349 -122.36265 22 ft 90 kts 298°
2026-05-07 03:26 37.61754 -122.37246 218 ft 152 kts 297°
2026-05-07 03:26 37.62303 -122.38538 951 ft 182 kts 302°
2026-05-07 03:26 37.62939 -122.40036 1916 ft 200 kts 298°
2026-05-07 03:27 37.63643 -122.41647 3019 ft 216 kts 299°
2026-05-07 03:27 37.64411 -122.43392 4119 ft 242 kts 301°
2026-05-07 03:27 37.65242 -122.45277 5461 ft 252 kts 300°
2026-05-07 03:27 37.66089 -122.47239 6910 ft 257 kts 300°
2026-05-07 03:28 37.66864 -122.49313 8114 ft 275 kts 287°
2026-05-07 03:28 37.66832 -122.51784 9209 ft 291 kts 253°
2026-05-07 03:28 37.65873 -122.54037 10554 ft 300 kts 232°
2026-05-07 03:28 37.64230 -122.55755 11498 ft 318 kts 205°
2026-05-07 03:29 37.62075 -122.56388 12629 ft 325 kts 179°
2026-05-07 03:29 37.59846 -122.55800 13865 ft 329 kts 158°
2026-05-07 03:29 37.57751 -122.54566 14954 ft 335 kts 150°
2026-05-07 03:29 37.55698 -122.53113 15941 ft 342 kts 148°
2026-05-07 03:30 37.53629 -122.51565 16899 ft 350 kts 147°
2026-05-07 03:30 37.51556 -122.49914 17860 ft 356 kts 144°
2026-05-07 03:30 37.49538 -122.48123 18755 ft 362 kts 140°
2026-05-07 03:30 37.47752 -122.45877 19552 ft 365 kts 128°
2026-05-07 03:31 37.46166 -122.43363 20360 ft 370 kts 126°
2026-05-07 03:31 37.44578 -122.40767 21154 ft 376 kts 126°
2026-05-07 03:31 37.42945 -122.38158 21927 ft 382 kts 127°
2026-05-07 03:31 37.41293 -122.35576 22190 ft 375 kts 127°
2026-05-07 03:32 37.39621 -122.32975 22584 ft 388 kts 127°
2026-05-07 03:32 37.37910 -122.30322 23250 ft 393 kts 127°
2026-05-07 03:32 37.36174 -122.27638 23918 ft 397 kts 127°
2026-05-07 03:32 37.34428 -122.24938 24504 ft 401 kts 127°
2026-05-07 03:33 37.32661 -122.22206 25092 ft 404 kts 127°
2026-05-07 03:33 37.30881 -122.19457 25656 ft 407 kts 127°
2026-05-07 03:33 37.29083 -122.16681 26190 ft 411 kts 127°
2026-05-07 03:33 37.27256 -122.13859 26306 ft 427 kts 127°
2026-05-07 03:34 37.25341 -122.10899 26255 ft 445 kts 127°
2026-05-07 03:34 37.23343 -122.07812 26137 ft 464 kts 127°
2026-05-07 03:34 37.21275 -122.04627 26131 ft 478 kts 127°
2026-05-07 03:34 37.19149 -122.01354 26081 ft 492 kts 128°
2026-05-07 03:35 37.16960 -121.97989 26092 ft 502 kts 128°
2026-05-07 03:35 37.15402 -121.95640 26010 ft 331 kts 128°
2026-05-07 03:35 37.13812 -121.93247 24147 ft 381 kts 128°
2026-05-07 03:35 37.12105 -121.90663 23795 ft 376 kts 128°
2026-05-07 03:36 37.10550 -121.88320 24778 ft 317 kts 127°
2026-05-07 03:36 37.09274 -121.86430 26044 ft 256 kts 127°
2026-05-07 03:36 37.08142 -121.84773 25852 ft 256 kts 127°
2026-05-07 03:36 37.06937 -121.82941 24916 ft 287 kts 124°
2026-05-07 03:37 37.05743 -121.80968 24845 ft 274 kts 124°
2026-05-07 03:37 37.04602 -121.79151 24914 ft 260 kts 127°
2026-05-07 03:37 37.03447 -121.77411 24838 ft 266 kts 125°
2026-05-07 03:37 37.02279 -121.75567 25135 ft 278 kts 126°
2026-05-07 03:38 37.01026 -121.73603 25255 ft 298 kts 126°
2026-05-07 03:38 36.99674 -121.71518 25391 ft 319 kts 127°
2026-05-07 03:38 36.98224 -121.69304 25539 ft 339 kts 127°
2026-05-07 03:38 36.96703 -121.66988 25674 ft 359 kts 127°
2026-05-07 03:39 36.95073 -121.64508 25771 ft 380 kts 127°
2026-05-07 03:39 36.93341 -121.61876 25675 ft 405 kts 127°
2026-05-07 03:39 36.91479 -121.59042 25186 ft 439 kts 127°
2026-05-07 03:39 36.89432 -121.55928 24755 ft 470 kts 128°
2026-05-07 03:40 36.87370 -121.52807 25175 ft 476 kts 128°
2026-05-07 03:40 36.85255 -121.49606 25178 ft 470 kts 128°
2026-05-07 03:40 36.83228 -121.46543 25099 ft 448 kts 128°
2026-05-07 03:40 36.81280 -121.43602 25235 ft 434 kts 128°
2026-05-07 03:41 36.79373 -121.40725 25215 ft 426 kts 128°
2026-05-07 03:41 36.77454 -121.37825 25233 ft 439 kts 128°
2026-05-07 03:41 36.75499 -121.34863 25250 ft 445 kts 128°
2026-05-07 03:41 36.73528 -121.31875 25261 ft 446 kts 128°
2026-05-07 03:42 36.71558 -121.28882 25250 ft 447 kts 128°
2026-05-07 03:42 36.69589 -121.25889 25193 ft 447 kts 127°
2026-05-07 03:42 36.67619 -121.22892 25196 ft 447 kts 127°
2026-05-07 03:42 36.65651 -121.19895 25202 ft 446 kts 127°
2026-05-07 03:43 36.63685 -121.16898 25197 ft 447 kts 127°
2026-05-07 03:43 36.61722 -121.13904 25196 ft 447 kts 127°
2026-05-07 03:43 36.59761 -121.10909 25195 ft 447 kts 127°
2026-05-07 03:43 36.57800 -121.07911 25197 ft 447 kts 127°
2026-05-07 03:44 36.55837 -121.04908 25182 ft 447 kts 127°
2026-05-07 03:44 36.53878 -121.01908 25182 ft 447 kts 127°
2026-05-07 03:44 36.51918 -120.98907 25185 ft 447 kts 127°
2026-05-07 03:44 36.49960 -120.95910 25187 ft 447 kts 127°
2026-05-07 03:45 36.48005 -120.92917 25180 ft 446 kts 127°
2026-05-07 03:45 36.46048 -120.89918 25180 ft 447 kts 127°
2026-05-07 03:45 36.44095 -120.86923 25179 ft 447 kts 127°
2026-05-07 03:45 36.42141 -120.83924 25180 ft 446 kts 127°
2026-05-07 03:46 36.40189 -120.80926 25178 ft 446 kts 127°
2026-05-07 03:46 36.38239 -120.77927 25178 ft 446 kts 127°
2026-05-07 03:46 36.36291 -120.74931 25178 ft 446 kts 127°
2026-05-07 03:46 36.34343 -120.71936 25171 ft 446 kts 127°
2026-05-07 03:47 36.32394 -120.68934 25169 ft 446 kts 127°
2026-05-07 03:47 36.30452 -120.65940 25169 ft 445 kts 127°
2026-05-07 03:47 36.28513 -120.62951 25174 ft 446 kts 127°
2026-05-07 03:47 36.26566 -120.59948 25168 ft 446 kts 127°
2026-05-07 03:48 36.24644 -120.56981 25171 ft 446 kts 127°
2026-05-07 03:48 36.22679 -120.53944 25161 ft 446 kts 127°
2026-05-07 03:48 36.20764 -120.50982 25166 ft 446 kts 127°
2026-05-07 03:48 36.18826 -120.47984 25166 ft 446 kts 127°
2026-05-07 03:49 36.16888 -120.44986 25155 ft 446 kts 127°
2026-05-07 03:49 36.14950 -120.41986 25159 ft 446 kts 127°
2026-05-07 03:49 36.13012 -120.38988 25166 ft 446 kts 127°
2026-05-07 03:49 36.11078 -120.35991 25159 ft 446 kts 127°
2026-05-07 03:50 36.09147 -120.32995 25154 ft 446 kts 127°
2026-05-07 03:50 36.07207 -120.29986 25158 ft 446 kts 127°
2026-05-07 03:50 36.05277 -120.26991 25156 ft 446 kts 126°
2026-05-07 03:50 36.03345 -120.23988 25158 ft 446 kts 126°
2026-05-07 03:51 36.01411 -120.20982 25151 ft 446 kts 126°
2026-05-07 03:51 35.99482 -120.17983 25155 ft 446 kts 126°
2026-05-07 03:51 35.97558 -120.14985 25147 ft 445 kts 126°
2026-05-07 03:51 35.95634 -120.11987 25140 ft 446 kts 126°
2026-05-07 03:52 35.93707 -120.08984 25143 ft 446 kts 126°
2026-05-07 03:52 35.91786 -120.05985 25146 ft 446 kts 126°
2026-05-07 03:52 35.89862 -120.02982 25139 ft 446 kts 126°
2026-05-07 03:52 35.87945 -119.99988 25139 ft 446 kts 126°
2026-05-07 03:53 35.86026 -119.96990 25144 ft 446 kts 126°
2026-05-07 03:53 35.84104 -119.93986 25134 ft 446 kts 126°
2026-05-07 03:53 35.82198 -119.90998 25138 ft 444 kts 124°
2026-05-07 03:53 35.80466 -119.87863 25139 ft 443 kts 119°
2026-05-07 03:54 35.78983 -119.84548 25142 ft 441 kts 114°
2026-05-07 03:54 35.77648 -119.81151 25139 ft 440 kts 112°
2026-05-07 03:54 35.76352 -119.77732 25127 ft 440 kts 112°
2026-05-07 03:54 35.75069 -119.74321 25131 ft 440 kts 112°
2026-05-07 03:55 35.73783 -119.70904 25124 ft 440 kts 112°
2026-05-07 03:55 35.72497 -119.67494 25123 ft 440 kts 112°
2026-05-07 03:55 35.71206 -119.64077 25127 ft 440 kts 112°
2026-05-07 03:55 35.69915 -119.60666 25137 ft 439 kts 112°
2026-05-07 03:56 35.68642 -119.57306 25135 ft 439 kts 112°
2026-05-07 03:56 35.67353 -119.53905 25137 ft 439 kts 112°
2026-05-07 03:56 35.65954 -119.50557 25146 ft 442 kts 120°
2026-05-07 03:56 35.64035 -119.47576 25154 ft 445 kts 129°
2026-05-07 03:57 35.61956 -119.44751 25154 ft 446 kts 130°
2026-05-07 03:57 35.59854 -119.41946 25136 ft 446 kts 130°
2026-05-07 03:57 35.57762 -119.39140 25140 ft 446 kts 130°
2026-05-07 03:57 35.55644 -119.36291 25139 ft 446 kts 130°
2026-05-07 03:58 35.53581 -119.33510 25132 ft 446 kts 129°
2026-05-07 03:58 35.51493 -119.30695 25132 ft 446 kts 129°
2026-05-07 03:58 35.49406 -119.27883 25131 ft 446 kts 129°
2026-05-07 03:58 35.47317 -119.25068 25129 ft 446 kts 129°
2026-05-07 03:59 35.45230 -119.22261 25128 ft 445 kts 130°
2026-05-07 03:59 35.43144 -119.19455 25126 ft 445 kts 130°
2026-05-07 03:59 35.41057 -119.16651 25124 ft 445 kts 130°
2026-05-07 03:59 35.38968 -119.13846 25126 ft 445 kts 130°
2026-05-07 04:00 35.36879 -119.11046 25125 ft 445 kts 129°
2026-05-07 04:00 35.34792 -119.08249 25127 ft 445 kts 129°
2026-05-07 04:00 35.32705 -119.05453 25144 ft 445 kts 129°
2026-05-07 04:00 35.30615 -119.02658 25144 ft 445 kts 129°
2026-05-07 04:01 35.28514 -118.99872 25143 ft 445 kts 130°
2026-05-07 04:01 35.26416 -118.97093 25142 ft 445 kts 130°
2026-05-07 04:01 35.24313 -118.94311 25153 ft 445 kts 130°
2026-05-07 04:01 35.22217 -118.91537 25160 ft 444 kts 130°
2026-05-07 04:02 35.20119 -118.88764 25156 ft 444 kts 130°
2026-05-07 04:02 35.18021 -118.85992 25159 ft 444 kts 130°
2026-05-07 04:02 35.15923 -118.83221 25154 ft 444 kts 130°
2026-05-07 04:02 35.13824 -118.80452 25186 ft 444 kts 130°
2026-05-07 04:03 35.11727 -118.77687 25193 ft 444 kts 130°
2026-05-07 04:03 35.09627 -118.74921 25193 ft 444 kts 130°
2026-05-07 04:03 35.07528 -118.72159 25207 ft 444 kts 130°
2026-05-07 04:03 35.05427 -118.69396 25223 ft 444 kts 130°
2026-05-07 04:04 35.03321 -118.66629 25228 ft 444 kts 129°
2026-05-07 04:04 35.01219 -118.63871 25214 ft 443 kts 130°
2026-05-07 04:04 34.99127 -118.61126 25219 ft 444 kts 129°
2026-05-07 04:04 34.97021 -118.58366 25219 ft 444 kts 129°
2026-05-07 04:05 34.94918 -118.55609 25213 ft 443 kts 130°
2026-05-07 04:05 34.93528 -118.53790 25211 ft 443 kts 130°
2026-05-07 04:05 34.90741 -118.50146 25196 ft 444 kts 130°
2026-05-07 04:05 34.88640 -118.47400 25183 ft 444 kts 130°
2026-05-07 04:06 34.86534 -118.44650 25125 ft 443 kts 130°
2026-05-07 04:06 34.84426 -118.41902 25118 ft 444 kts 130°
2026-05-07 04:06 34.82324 -118.39162 25122 ft 444 kts 130°
2026-05-07 04:06 34.80898 -118.37304 25138 ft 444 kts 130°
2026-05-07 04:07 34.78837 -118.34625 25007 ft 432 kts 130°
2026-05-07 04:07 34.76851 -118.31987 24763 ft 413 kts 127°
2026-05-07 04:07 34.75111 -118.29291 24527 ft 401 kts 123°
2026-05-07 04:07 34.73455 -118.26589 24303 ft 398 kts 123°
2026-05-07 04:08 34.71776 -118.23899 24087 ft 399 kts 124°
2026-05-07 04:08 34.70076 -118.21234 23862 ft 399 kts 124°
2026-05-07 04:08 34.68370 -118.18588 23634 ft 397 kts 124°
2026-05-07 04:08 34.66664 -118.15953 23373 ft 396 kts 124°
2026-05-07 04:09 34.64965 -118.13330 23094 ft 394 kts 124°
2026-05-07 04:09 34.63281 -118.10732 22846 ft 392 kts 124°
2026-05-07 04:09 34.61596 -118.08134 22587 ft 390 kts 124°
2026-05-07 04:09 34.59921 -118.05554 22335 ft 388 kts 124°
2026-05-07 04:10 34.58277 -118.02975 22069 ft 384 kts 120°
2026-05-07 04:10 34.56983 -118.00177 21812 ft 379 kts 113°
2026-05-07 04:10 34.55800 -117.97314 21562 ft 378 kts 112°
2026-05-07 04:10 34.54644 -117.94468 21304 ft 376 kts 112°
2026-05-07 04:11 34.53489 -117.91630 21049 ft 374 kts 112°
2026-05-07 04:11 34.52338 -117.88808 20799 ft 373 kts 112°
2026-05-07 04:11 34.51195 -117.86015 20775 ft 367 kts 112°
2026-05-07 04:11 34.50050 -117.83220 20740 ft 375 kts 112°
2026-05-07 04:12 34.48886 -117.80377 20311 ft 374 kts 112°
2026-05-07 04:12 34.47733 -117.77576 19929 ft 369 kts 112°
2026-05-07 04:12 34.46594 -117.74807 19606 ft 365 kts 113°
2026-05-07 04:12 34.45464 -117.72064 19284 ft 363 kts 113°
2026-05-07 04:13 34.44340 -117.69335 19011 ft 361 kts 113°
2026-05-07 04:13 34.43226 -117.66613 18730 ft 360 kts 112°
2026-05-07 04:13 34.42120 -117.63898 18530 ft 358 kts 112°
2026-05-07 04:13 34.41031 -117.61229 18289 ft 358 kts 112°
2026-05-07 04:14 34.39931 -117.58532 18086 ft 356 kts 112°
2026-05-07 04:14 34.38833 -117.55850 17848 ft 356 kts 112°
2026-05-07 04:14 34.37736 -117.53170 17633 ft 354 kts 112°
2026-05-07 04:14 34.36642 -117.50503 17395 ft 353 kts 112°
2026-05-07 04:15 34.35552 -117.47850 17178 ft 351 kts 112°
2026-05-07 04:15 34.34473 -117.45224 16943 ft 346 kts 112°
2026-05-07 04:15 34.33398 -117.42621 16753 ft 345 kts 112°
2026-05-07 04:15 34.32331 -117.40019 16543 ft 344 kts 112°
2026-05-07 04:16 34.31266 -117.37422 16305 ft 345 kts 112°
2026-05-07 04:16 34.30203 -117.34838 16142 ft 342 kts 112°
2026-05-07 04:16 34.29118 -117.32281 16070 ft 340 kts 114°
2026-05-07 04:16 34.27954 -117.29782 16083 ft 342 kts 115°
2026-05-07 04:17 34.26785 -117.27295 16038 ft 341 kts 115°
2026-05-07 04:17 34.25611 -117.24785 16119 ft 345 kts 115°
2026-05-07 04:17 34.24430 -117.22259 16085 ft 345 kts 115°
2026-05-07 04:17 34.23257 -117.19744 16098 ft 344 kts 115°
2026-05-07 04:18 34.22081 -117.17226 16055 ft 344 kts 115°
2026-05-07 04:18 34.20915 -117.14690 15996 ft 345 kts 114°
2026-05-07 04:18 34.19747 -117.12162 15977 ft 345 kts 114°
2026-05-07 04:18 34.18596 -117.09623 16025 ft 344 kts 115°
2026-05-07 04:19 34.17415 -117.07093 15929 ft 346 kts 116°
2026-05-07 04:19 34.16208 -117.04593 15868 ft 344 kts 116°
2026-05-07 04:19 34.15019 -117.02124 15747 ft 345 kts 115°
2026-05-07 04:19 34.13807 -116.99589 15571 ft 343 kts 115°
2026-05-07 04:20 34.12643 -116.97134 15405 ft 341 kts 115°
2026-05-07 04:20 34.11462 -116.94664 15234 ft 339 kts 115°
2026-05-07 04:20 34.10291 -116.92208 15118 ft 336 kts 115°
2026-05-07 04:21 34.07998 -116.87381 14747 ft 320 kts 115°
2026-05-07 04:21 34.06935 -116.85089 14578 ft 309 kts 115°
2026-05-07 04:21 34.05881 -116.82862 14397 ft 303 kts 115°
2026-05-07 04:21 34.04821 -116.80664 14186 ft 303 kts 115°
2026-05-07 04:22 34.03802 -116.78469 14064 ft 299 kts 114°
2026-05-07 04:22 34.02999 -116.76171 13897 ft 296 kts 104°
2026-05-07 04:22 34.02373 -116.73821 13795 ft 295 kts 103°
2026-05-07 04:22 34.01751 -116.71449 13670 ft 298 kts 103°
2026-05-07 04:23 34.01126 -116.69086 13551 ft 293 kts 103°
2026-05-07 04:23 34.00512 -116.66751 13466 ft 294 kts 103°
2026-05-07 04:23 33.99884 -116.64395 13343 ft 297 kts 103°
2026-05-07 04:23 33.99249 -116.62042 13230 ft 297 kts 104°
2026-05-07 04:24 33.98609 -116.59675 13122 ft 295 kts 103°
2026-05-07 04:24 33.97978 -116.57317 12936 ft 297 kts 103°
2026-05-07 04:24 33.97166 -116.55024 12645 ft 302 kts 117°
2026-05-07 04:24 33.95823 -116.53074 12378 ft 303 kts 130°
2026-05-07 04:25 33.94306 -116.51297 11934 ft 305 kts 132°
2026-05-07 04:25 33.92762 -116.49551 11499 ft 304 kts 133°
2026-05-07 04:25 33.91229 -116.47818 11102 ft 300 kts 132°
2026-05-07 04:25 33.89736 -116.46119 10685 ft 290 kts 132°
2026-05-07 04:26 33.88322 -116.44505 10335 ft 271 kts 132°
2026-05-07 04:26 33.87054 -116.42933 9962 ft 251 kts 121°
2026-05-07 04:26 33.86251 -116.41175 9623 ft 239 kts 111°
2026-05-07 04:26 33.85588 -116.39394 9312 ft 228 kts 109°
2026-05-07 04:27 33.84961 -116.37675 9042 ft 220 kts 109°
2026-05-07 04:27 33.84351 -116.36023 8787 ft 213 kts 110°
2026-05-07 04:27 33.83751 -116.34417 8498 ft 208 kts 110°
2026-05-07 04:27 33.83158 -116.32846 8240 ft 203 kts 110°
2026-05-07 04:28 33.82584 -116.31333 7973 ft 197 kts 110°
2026-05-07 04:28 33.82030 -116.29878 7757 ft 186 kts 111°
2026-05-07 04:28 33.81486 -116.28451 7394 ft 191 kts 111°
2026-05-07 04:28 33.80935 -116.26992 7177 ft 192 kts 111°
2026-05-07 04:29 33.80273 -116.25580 6962 ft 197 kts 123°
2026-05-07 04:29 33.79305 -116.24385 6657 ft 203 kts 140°
2026-05-07 04:29 33.78075 -116.23561 6366 ft 203 kts 158°
2026-05-07 04:29 33.76710 -116.23193 6113 ft 201 kts 176°
2026-05-07 04:30 33.75324 -116.23344 5855 ft 201 kts 194°
2026-05-07 04:30 33.74040 -116.23971 5595 ft 200 kts 211°
2026-05-07 04:30 33.72967 -116.25008 5324 ft 198 kts 229°
2026-05-07 04:30 33.72181 -116.26346 5074 ft 194 kts 243°
2026-05-07 04:31 33.71625 -116.27808 4828 ft 192 kts 251°
2026-05-07 04:31 33.71262 -116.29335 4564 ft 189 kts 259°
2026-05-07 04:31 33.71083 -116.30884 4314 ft 186 kts 268°
2026-05-07 04:31 33.71085 -116.32428 4053 ft 184 kts 274°
2026-05-07 04:32 33.71256 -116.33927 3822 ft 183 kts 282°
2026-05-07 04:32 33.71601 -116.35415 3582 ft 183 kts 290°
2026-05-07 04:32 33.72079 -116.36799 3401 ft 176 kts 293°
2026-05-07 04:32 33.72571 -116.38133 3190 ft 172 kts 294°
2026-05-07 04:33 33.73030 -116.39370 2912 ft 153 kts 294°
2026-05-07 04:33 33.73434 -116.40464 2702 ft 137 kts 294°
2026-05-07 04:33 33.73803 -116.41480 2537 ft 130 kts 293°
2026-05-07 04:33 33.74244 -116.42422 2370 ft 130 kts 308°
2026-05-07 04:34 33.74908 -116.43153 2189 ft 132 kts 319°
2026-05-07 04:34 33.75584 -116.43874 2045 ft 128 kts 316°
2026-05-07 04:34 33.76239 -116.44538 1826 ft 119 kts 317°
2026-05-07 04:34 33.76849 -116.45184 1646 ft 118 kts 316°
2026-05-07 04:35 33.77493 -116.45847 1439 ft 124 kts 320°
2026-05-07 04:35 33.78164 -116.46532 1382 ft 130 kts 321°
2026-05-07 04:35 33.78882 -116.47160 1209 ft 124 kts 323°
2026-05-07 04:35 33.79565 -116.47741 1028 ft 117 kts 324°
2026-05-07 04:36 33.80210 -116.48301 881 ft 114 kts 321°
2026-05-07 04:36 33.80851 -116.48867 724 ft 114 kts 319°
2026-05-07 04:36 33.81480 -116.49445 590 ft 113 kts 321°
2026-05-07 04:36 33.82107 -116.50010 438 ft 104 kts 320°
2026-05-07 04:37 33.82601 -116.50458 419 ft 67 kts 322°
2026-05-07 04:37 33.82870 -116.50714 422 ft 29 kts 308°
2026-05-07 04:37 33.82885 -116.50809 433 ft 8 kts 263°
2026-05-07 04:37 33.82875 -116.50844 428 ft 1 kts 238°
2026-05-07 04:38 33.82869 -116.50851 432 ft 0 kts 221°
2026-05-07 04:38 33.82849 -116.50857 428 ft 2 kts 152°
2026-05-07 04:38 33.82820 -116.50839 433 ft 7 kts 152°
2026-05-07 04:38 33.82779 -116.50805 432 ft 7 kts 137°
2026-05-07 04:39 33.82708 -116.50739 424 ft 18 kts 149°
2026-05-07 04:39 33.82599 -116.50703 424 ft 15 kts 188°
2026-05-07 04:39 33.82521 -116.50674 423 ft 13 kts 149°
2026-05-07 04:39 33.82467 -116.50637 417 ft 5 kts 173°
2026-05-07 04:40 33.82427 -116.50643 419 ft 7 kts 195°
2026-05-07 04:40 33.82402 -116.50652 421 ft 3 kts 191°
2026-05-07 04:40 33.82391 -116.50655 421 ft 0 kts 193°